Regional Weather Roundup
Issued by NWS

Home | Current Version | Previous Version | Text Only | Print | Product List | Glossary On
Versions: 1 2 3 4 5 6 7 8 9 10 11 12 13 14 15 16 17 18 19 20 21 22 23 24 25 26 27 28 29 30 31 32 33 34 35 36 37 38 39 40 41 42 43 44 45 46 47 48 49 50
000
ASUS43 KLMK 242010
RWRKY
KENTUCKY REGIONAL WEATHER ROUNDUP
NATIONAL WEATHER SERVICE LOUISVILLE KY
400 PM EDT SUN MAY 24 2015

NOTE "FAIR" INDICATES FEW OR NO CLOUDS BELOW 12,000 FEET
WITH NO SIGNIFICANT WEATHER AND/OR OBSTRUCTIONS TO VISIBILITY.

KYZ001>023-026-027-061>063-070>075-242100-
WESTERN AND SOUTH CENTRAL KENTUCKY

CITY           SKY/WX    TMP DP  RH WIND       PRES   REMARKS
PADUCAH        PTSUNNY   84  64  50 S15G24    30.04F
HENDERSON      PTSUNNY   82  63  51 S14       30.07F
OWENSBORO      PTSUNNY   85  64  49 S13G20    30.11F
HOPKINSVILLE   MOSUNNY   83  65  53 S13       30.10F
BOWLING GREEN  MOSUNNY   85  60  42 SE13      30.16F
GLASGOW        MOSUNNY   84  59  42 S7        30.17F
$$

KYZ024-025-028>034-038-045-046-053-242100-
NORTH CENTRAL KENTUCKY

CITY           SKY/WX    TMP DP  RH WIND       PRES   REMARKS
LOUISVILLE/SDF PTSUNNY   84  57  39 S15       30.15F
LOUISVILLE/LOU MOSUNNY   85  57  38 SE12      30.16F
FORT KNOX      MOSUNNY   84  61  46 S14       30.15F
$$

KYZ035>037-039>044-047>052-055>060-089>105-242100-
NORTHEAST KENTUCKY

CITY           SKY/WX    TMP DP  RH WIND       PRES   REMARKS
LEXINGTON      SUNNY     82  53  36 S14G21    30.21F
COVINGTON      MOSUNNY   83  54  36 SE16      30.19F
FRANKFORT      SUNNY     83  53  35 S8G17     30.19F
$$

KYZ054-064>069-076>088-106>120-242100-
SOUTHEAST KENTUCKY

CITY           SKY/WX    TMP DP  RH WIND       PRES   REMARKS
JACKSON        MOSUNNY   82  54  37 VRB3      30.25F
LONDON         SUNNY     83  42  23 SW13      30.25F
SOMERSET       SUNNY     81  50  34 S8        30.24F
MIDDLESBORO    SUNNY     82  52  35 S7        30.26F
MONTICELLO     CLEAR     83  58  42 S13       30.25F
$$




USA.gov is the U.S. government's official web portal to all federal, state and local government web resources and services.